www.pogodaiklimat.ru

Погода и климат >> Архив погоды >> Россия >> Волгоградская область >> Ольховка


ПОГОДА в Ольховке

  • Прогноз погоды в Ольховке
  • Монитор погоды в Ольховке

АРХИВ ПОГОДЫ в Ольховке

Время (UTC), дата Ветер
(напр.,м/с)
 
Видим.   Явления Облачность Т
(С)
Тd
(С)
f
(%)
Тe
(С)
Тes
(С)
Комфортность P
(гПа)
Po
(гПа)
Тmin
(С)
Tmax
(С)
R
(мм)
R24
(мм)
S
(см)
06 17.07 Ю 4 20 км 10/8 600 м
[Cb cap Ci fib]
+22.3 +16.3 69 +27 +28 душно 1004.9 996.0
09 17.07 Ю 4 20 км 8/3 1000 м
[Cu med, cong Ci fib]
+24.0 +15.1 57 +27 +34 жарко 1004.9 996.0
12 17.07 ЮЗ 4 20 км 8/6 600 м
[Cb cap Ci fib]
+25.6 +14.7 51 +28 +31 жарко 1004.7 995.9
15 17.07 З 4
{10}
20 км 10/3 600 м
[Cu med, cong Cs]
+25.3 +14.1 50 +28 +28 жарко 1004.6 995.8 +25.7
18 17.07 ЮЗ 1 20 км 8/3 600 м
[Sc diur, vesp Ci fib]
+19.8 +15.5 76 +23 +23 комфорт 1006.4 997.4
21 17.07 штиль 0 20 км 3/3 600 м
[Sc]
+15.8 +14.0 89 +16 +16 1007.2 998.1
00 18.07 З 1 20 км ясно +14.0 +12.8 92 +14 +14 1007.3 998.1
03 18.07 штиль 0 20 км ясно +16.4 +14.7 90 +16 +18 1008.3 999.2 +11.8
06 18.07 СЗ 3 20 км ясно +25.2 +14.9 53 +28 +37 жарко 1008.1 999.3
09 18.07 З 2 20 км 8/3 600 м
[Cu med, cong Ci fib]
+28.0 +11.0 35 +29 +39 жарко 1008.0 999.2
12 18.07 штиль 0 20 км 10/3 1000 м
[Cu med, cong Ci fib]
+29.6 +9.5 29 +29 +38 жарко 1007.7 999.0
15 18.07 З 2 20 км 10/0
[Cs]
+28.8 +9.5 30 +29 +30 жарко 1007.7 998.9 +31.1
18 18.07 СЗ 1 20 км 10/3 600 м
[Sc diur, vesp Ac trans Cs]
+23.1 +14.5 58 +27 +27 душно 1009.3 1000.4
21 18.07 Ю 2 20 км 10/10 600 м
[Sc]
+21.4 +15.2 68 +25 +25 комфорт 1010.9 1001.9
00 19.07 З 2 10 км слаб. ливневой дождь 10/10 300 м
[Cb cap]
+19.2 +15.3 78 +21 +21 комфорт 1011.8 1002.7
03 19.07 Ю 1 20 км в посл. час ливневой дождь 10/5 600 м
[Cb cap Ac As]
+18.1 +16.2 89 +19 +20 1012.7 1003.6 +17.8 2
06 19.07 Ю 2 20 км {ливн. осадки} ясно +24.0 +15.9 61 +27 +38 жарко 1012.6 1003.7
09 19.07 ЮЗ 3 20 км ясно +28.7 +13.7 40 +31 +45 жарко 1011.9 1003.1
12 19.07 З 2 20 км 8/6 600 м
[Cu med, cong Ci fib]
+28.7 +11.4 34 +29 +33 жарко 1011.5 1002.7
15 19.07 З 3 20 км 4/1 1000 м
[Cu med, cong]
+29.6 +9.0 28 +29 +30 жарко 1011.7 1002.9 +30.6
18 19.07 СЗ 2 20 км 3/0
[Ci fib]
+21.5 +10.2 49 +23 +23 комфорт 1013.6 1004.6
21 19.07 ЮЗ 1 20 км ясно +15.5 +11.1 75 +16 +16 1014.9 1005.6
00 20.07 штиль 0 20 км 8/8 600 м
[Sc]
+13.4 +10.4 82 +13 +13 1015.8 1006.5
03 20.07 З 1 20 км 3/0
[Ci fib]
+16.4 +10.0 66 +17 +19 1016.8 1007.5 +12.4
06 20.07 З 3 20 км ясно +26.3 +9.8 35 +27 +36 жарко 1016.9 1008.0
09 20.07 З 3 20 км 8/3 1000 м
[Cu med, cong Ci fib]
+29.0 +7.6 26 +28 +37 жарко 1016.9 1008.1
12 20.07 З 4 20 км 10/3 600 м
[Cu med, cong Cs]
+29.3 +7.3 25 +28 +32 жарко 1016.5 1007.7
15 20.07 СЗ 2 20 км 8/8 600 м
[Cu med, cong]
+29.0 +7.8 26 +28 +29 жарко 1016.4 1007.6 +30.6
18 20.07 СЗ 1 20 км 1/0
[Ac trans]
+20.4 +11.0 55 +23 +23 комфорт 1017.7 1008.6
21 20.07 штиль 0 20 км ясно +15.2 +11.2 77 +15 +15 1018.5 1009.2
00 21.07 штиль 0 20 км ясно +12.3 +10.2 87 +12 +12 1018.9 1009.5
03 21.07 штиль 0 20 км ясно +15.5 +10.5 72 +15 +17 1019.2 1009.9 +11.0
06 21.07 Ю 1 20 км ясно +27.0 +9.8 34 +27 +40 жарко 1018.7 1009.8
09 21.07 З 3 20 км 8/6 1000 м
[Cu hum Ci fib]
+30.5 +7.3 23 +29 +34 жарко 1017.5 1008.7
12 21.07 З 4 20 км 8/5 1000 м
[Cu hum Ci fib]
+30.9 +6.6 22 +29 +33 жарко 1016.5 1007.7
15 21.07 СЗ 2 20 км 10/3 600 м
[Sc diur, vesp Cs]
+29.1 +8.6 28 +29 +30 жарко 1015.5 1006.7 +31.9
18 21.07 штиль 0 20 км 10/3 600 м
[Sc Ac trans Ci fib]
+21.7 +13.8 61 +25 +25 комфорт 1016.1 1007.1
21 21.07 ЮЗ 1 20 км 10/10 600 м
[Sc]
+18.2 +13.2 73 +20 +20 1016.1 1007.0
00 22.07 С 1 20 км 10/10 600 м
[Sc]
+16.8 +12.5 76 +18 +18 1015.7 1006.5
03 22.07 СЗ 2 20 км 10/10 600 м
[Cb cap]
+18.0 +12.2 69 +19 +19 1015.3 1006.2 +16.6
06 22.07 ЮЗ 1 20 км 10/10 600 м
[Sc]
+22.4 +13.0 55 +25 +25 комфорт 1015.5 1006.5
09 22.07 Ю 3 20 км 6/0
[Cs]
+28.8 +10.4 32 +29 +41 жарко 1014.1 1005.3
12 22.07 ЮВ 1
{11}
20 км 4/0
[Ci fib]
+28.8 +8.4 28 +28 +40 жарко 1014.0 1005.2
15 22.07 штиль 0 20 км 3/0
[Ci fib]
+29.9 +7.4 24 +29 +31 жарко 1013.3 1004.5 +30.8
18 22.07 С 1 20 км 3/1 600 м
[Sc diur, vesp Ac trans]
+21.6 +11.9 54 +24 +24 комфорт 1014.4 1005.4
21 22.07 Ю 1 20 км 6/0
[Ac trans]
+17.8 +12.5 71 +19 +19 1015.1 1006.0
00 23.07 ЮЗ 1 20 км 9/9 600 м
[Sc]
+15.4 +11.9 80 +16 +16 1015.3 1006.1
03 23.07 С 1 20 км 8/8 600 м
[Sc]
+17.2 +12.3 73 +18 +18 1015.5 1006.3 +14.9
06 23.07 В 4 20 км 3/3 1000 м
[Cu med, cong]
+25.9 +9.4 35 +26 +31 жарко 1014.8 1005.9
09 23.07 В 2 20 км 1/0
[Ci fib]
+29.7 +9.4 28 +29 +46 жарко 1013.7 1004.9
12 23.07 СВ 3 20 км 3/3 1000 м
[Cu med, cong]
+30.5 +9.4 27 +30 +36 жарко 1012.1 1003.4
15 23.07 В 2 20 км 8/4 600 м
[Cu med, cong Ci fib]
+28.1 +10.8 34 +29 +29 жарко 1011.2 1002.4 +31.6
18 23.07 СВ 3 20 км 9/9 600 м
[Sc]
+25.0 +10.0 39 +26 +26 жарко 1012.1 1003.2
21 23.07 В 2 20 км 8/8 600 м
[Sc]
+23.4 +10.1 43 +25 +25 комфорт 1012.3 1003.4
03 24.07 СВ 2 20 км 6/6
[Sc]
+20.8 +9.5 48 +23 +24 комфорт 1012.1 1003.1 +20.5

 

Местоположение метеостанции Ольховка (Волгоградская область, Россия): широта 49.87 долгота 44.55 высота над уровнем моря 76 м.

В архиве по умолчанию представлена погода в Ольховке за последнюю неделю. Архивные данные за месяц целиком и за предыдущие месяцы, начиная с января 2011 года, Вы можете получить, выбрав интересующий диапазон дат из раскрывающегося списка и нажав кнопку "Ввод!".


*Определитесь, кто Вы:
робот инопланетянин человек

Внимание! Время в таблицах - всемирное. Для получения местного времени необходимо прибавить поправку, которая равна 3 ч.

Смотрите также архив погоды в соседних городах и на ближайших метеорологических станциях:

Погода в Камышине (Волгоградская область, Россия) (63 км)
Погода в Даниловке (Волгоградская область, Россия) (64 км)
Погода в Фролове (Волгоградская область, Россия) (64 км)
Погода в Иловле (Волгоградская область, Россия) (75 км)
Погода в Михайловке (Волгоградская область, Россия) (94 км)
Погода в Рудне (Волгоградская область, Россия) (107 км)
Погода в Волгограде (Волгоградская область, Россия) (122 км)
Погода в Елани (Волгоградская область, Россия) (133 км)
Погода в Волгограде город (Волгоградская область, Россия) (134 км)
Погода в Серафимовиче (Волгоградская область, Россия) (135 км)

Пояснения к столбцам:

Ветер - указаны скорость ветра в м/с - средняя за 10 мин, порывы в срок и между сроками (в фигурных скобках) и направление, откуда дует ветер: С - северный, СВ - северо-восточный, В - восточный, ЮВ - юго-восточный, Ю - южный, ЮЗ - юго-западный, З - западный, СЗ - северо-западный.
Видимость - горизонтальная дальность видимости в метрах или километрах. При видимости от 1 до 10 км при отсутствии осадков обычно наблюдается дымка, при ухудшении видимости до 1 км и менее - туман. В сухую погоду видимость может ухудшаться дымом, пылью или мглою.
Явления - указаны атмосферные явления, наблюдавшиеся в срок или в последний час перед сроком; фигурными скобками обозначены явления, наблюдавшиеся между сроками (за 1-3 часа до срока); квадратными скобками обозначены град или гололедные отложения с указанием их диаметра в мм.
Облачность - указаны через наклонную черту общая и нижняя облачность в баллах и высота нижней границы облаков в метрах; квадратными скобками обозначены формы облаков: Ci - перистые, Cs - перисто-слоистые, Cc - перисто-кучевые, Ac - высококучевые, As - высокослоистые, Sc - слоисто-кучевые, Ns - слоисто-дождевые, Cu - кучевые, Cb - кучево-дождевые. Подробнее классификацию облаков см. в Атласе облаков (PDF).
T - Температура воздуха - температура, измеренная на высоте 2 м над землей.
Td - Температура точки росы - температура, при понижении до которой содержащийся в воздухе водяной пар достигнет насыщения.
f - Относительная влажность воздуха - влажноcть воздуха, измеренная на высоте 2 м над землей.
Te - Эффективная температура - температура, которую ощущает одетый по сезону человек в тени. Характеристика душности погоды. При расчете учитывается влияние влажности воздуха и скорости ветра на теплоощущения человека.
Tes - Эффективная температура на солнце - температура, которую ощущает человек, с поправкой на солнечный нагрев. Характеристика знойности погоды. Зависит от высоты солнца над горизонтом, облачности и скорости ветра. Ночью, в пасмурную погоду, а также при ветре 12 м/с и более поправка равна нулю.
P - Атмосферное давление - приведенное к уровню моря атмосферное давление.
Po - Атмосферное давление - измеренное на уровне метеостанции атмосферное давление.
Tmin - Минимальная температура - минимум температуры воздуха на высоте 2 м над землей.
Tmax - Максимальная температура - максимум температуры воздуха на высоте 2 м над землей.
R - Количество осадков - Количество выпавших осадков за период времени, мм. При наведении курсора мыши на число - период времени, за который выпало указанное количество осадков.
R24 - Количество осадков - Количество выпавших осадков за 24 часа, мм.
S - Снежный покров - Высота снежного покрова, см. При наведении курсора мыши на число - состояние снежного покрова и степень покрытия местности в баллах.